Weather History for Togiak, AK

Change the Weather History Date:

Tuesday, November 13, 2012

  Actual Average Record
Temperature  
Mean Temperature 32 °F -  
Max Temperature 37 °F 31 °F 44 °F (2013)
Min Temperature 28 °F 22 °F 5 °F (2005)
Degree Days  
Heating Degree Days 32    
Moisture  
Dew Point 32 °F    
Average Humidity 90    
Maximum Humidity 100    
Minimum Humidity 75    
Precipitation  
Precipitation 0.00 in - - ()
Sea Level Pressure  
Sea Level Pressure 29.52 in    
Wind  
Wind Speed 13 mph (East)    
Max Wind Speed 24 mph    
Max Gust Speed 28 mph    
Visibility 9 miles    
Events      
Averages and records for this station are not official NWS values.
T = Trace of Precipitation, MM = Missing Value Source: NWS Daily Summary

Daily Weather History Graph

Daily Weather History Graph

Search for Another Location

Airport:

Trip Planner

Search our weather history database for the weather conditions in past years. The results will help you decide how hot, cold, wet, or windy it might be!

Date:

Astronomy

Nov. 13, 2012 Rise Set
Actual Time 9:30 AM AKST 5:20 PM AKST
Civil Twilight 8:44 AM AKST 6:07 PM AKST
Nautical Twilight 7:54 AM AKST 6:57 PM AKST
Astronomical Twilight 7:06 AM AKST 7:44 PM AKST
Moon 9:30 AM AKST (11/13) 5:13 PM AKST (11/13)
Length of Visible Light 9h 22m
Length of Day
7h 49m
Waning Crescent, 0% of the Moon is Illuminated
Nov 13
Waning Crescent
Nov 13
New
Nov 20
First Quarter
Nov 28
Full
Dec 6
Last Quarter

Hourly Weather History & Observations

Time (AKST) Temp. Windchill Dew Point Humidity Pressure Visibility Wind Dir Wind Speed Gust Speed Precip Events Conditions
12:16 AM 28.4 °F 19.1 °F 26.6 °F 93% 29.88 in 10.0 mi NNE 10.4 mph - N/A   Overcast
12:36 AM 28.4 °F 18.5 °F 26.6 °F 93% 29.88 in 10.0 mi NNE 11.5 mph - N/A   Overcast
12:56 AM 28.4 °F 19.7 °F 26.6 °F 93% 29.87 in 10.0 mi NNE 9.2 mph - N/A   Overcast
1:16 AM 30.2 °F 20.8 °F 26.6 °F 86% 29.85 in 10.0 mi NNE 11.5 mph - N/A   Overcast
1:36 AM 30.2 °F 20.8 °F 26.6 °F 86% 29.85 in 10.0 mi NNE 11.5 mph - N/A   Mostly Cloudy
1:56 AM 30.2 °F 21.9 °F 26.6 °F 86% 29.84 in 10.0 mi NE 9.2 mph - N/A   Clear
2:16 AM 30.2 °F 21.3 °F 26.6 °F 86% 29.84 in 10.0 mi NNE 10.4 mph - N/A   Mostly Cloudy
2:36 AM 30.2 °F 21.3 °F 26.6 °F 86% 29.83 in 10.0 mi NNE 10.4 mph - N/A   Overcast
3:16 AM 30.2 °F 21.3 °F 26.6 °F 86% 29.80 in 10.0 mi NNE 10.4 mph - N/A   Overcast
3:36 AM - - - N/A% - - North - - N/A   Unknown
3:56 AM 30.2 °F 23.4 °F 26.6 °F 86% 29.78 in 10.0 mi NNE 6.9 mph - N/A   Overcast
4:16 AM 32.0 °F 23.0 °F 28.4 °F 87% 29.76 in 10.0 mi NNE 11.5 mph - N/A   Overcast
4:36 AM 32.0 °F 23.0 °F 28.4 °F 87% 29.75 in 10.0 mi NNE 11.5 mph - N/A   Overcast
4:56 AM 32.0 °F 22.1 °F 28.4 °F 87% 29.73 in 10.0 mi NE 13.8 mph - N/A   Overcast
5:16 AM 33.8 °F 25.3 °F 28.4 °F 81% 29.71 in 10.0 mi NE 11.5 mph 18.4 mph N/A   Overcast
5:36 AM 33.8 °F 24.8 °F 30.2 °F 87% 29.68 in 10.0 mi NE 12.7 mph 17.3 mph N/A   Overcast
5:56 AM 33.8 °F 26.4 °F 30.2 °F 87% 29.69 in 10.0 mi NE 9.2 mph - N/A   Overcast
6:16 AM 33.8 °F 24.3 °F 30.2 °F 87% 29.68 in 10.0 mi ENE 13.8 mph 20.7 mph N/A   Overcast
6:36 AM 35.6 °F 27.1 °F 30.2 °F 81% 29.67 in 10.0 mi ENE 12.7 mph 18.4 mph N/A   Overcast
6:56 AM 35.6 °F 28.6 °F 28.4 °F 75% 29.65 in 10.0 mi ENE 9.2 mph - N/A   Overcast
7:16 AM 35.6 °F 28.0 °F 30.2 °F 81% 29.64 in 10.0 mi ENE 10.4 mph - N/A   Overcast
7:36 AM 33.8 °F 26.4 °F 28.4 °F 81% 29.63 in 10.0 mi North 9.2 mph - N/A   Overcast
7:56 AM 35.6 °F 25.9 °F 30.2 °F 81% 29.60 in 9.0 mi ENE 16.1 mph 21.9 mph N/A   Overcast
8:16 AM 35.6 °F 26.2 °F 30.2 °F 81% 29.60 in 10.0 mi ENE 15.0 mph 20.7 mph N/A   Overcast
8:36 AM 35.6 °F 28.0 °F 30.2 °F 81% 29.60 in 10.0 mi ENE 10.4 mph - N/A   Overcast
8:56 AM 35.6 °F 27.5 °F 30.2 °F 81% 29.60 in 9.0 mi NE 11.5 mph - N/A   Overcast
9:16 AM 35.6 °F 27.5 °F 32.0 °F 87% 29.59 in 7.0 mi ENE 11.5 mph 17.3 mph N/A   Overcast
9:36 AM 33.8 °F 23.5 °F 32.0 °F 93% 29.57 in 10.0 mi East 16.1 mph 19.6 mph N/A   Overcast
9:56 AM 33.8 °F 22.8 °F 32.0 °F 93% 29.56 in 10.0 mi East 18.4 mph - N/A   Overcast
10:16 AM 33.8 °F 23.2 °F 33.8 °F 100% 29.55 in 9.0 mi East 17.3 mph - N/A   Overcast
10:36 AM 33.8 °F 23.2 °F 33.8 °F 100% 29.55 in 7.0 mi East 17.3 mph - N/A   Overcast
10:56 AM 35.6 °F 24.8 °F 33.8 °F 93% 29.54 in 7.0 mi East 19.6 mph 23.0 mph N/A   Overcast
11:16 AM 35.6 °F 25.5 °F 33.8 °F 93% 29.53 in 8.0 mi East 17.3 mph - N/A   Overcast
11:36 AM 33.8 °F 23.2 °F 33.8 °F 100% 29.52 in 5.0 mi East 17.3 mph - N/A   Overcast
11:56 AM 35.6 °F 24.5 °F 33.8 °F 93% 29.51 in 5.0 mi East 20.7 mph 24.2 mph N/A   Overcast
12:16 PM 35.6 °F 24.5 °F 33.8 °F 93% 29.50 in 5.0 mi East 20.7 mph - N/A   Overcast
12:36 PM 35.6 °F 24.5 °F 33.8 °F 93% 29.49 in 6.0 mi East 20.7 mph - N/A   Overcast
12:56 PM 35.6 °F 23.7 °F 33.8 °F 93% 29.47 in 5.0 mi East 24.2 mph - N/A   Overcast
1:16 PM 35.6 °F 24.2 °F 33.8 °F 93% 29.46 in 5.0 mi East 21.9 mph - N/A   Overcast
1:36 PM 35.6 °F 24.8 °F 33.8 °F 93% 29.44 in 8.0 mi East 19.6 mph - N/A   Overcast
1:56 PM 35.6 °F 24.8 °F 35.6 °F 100% 29.43 in 10.0 mi East 19.6 mph - N/A   Overcast
2:16 PM 35.6 °F 25.5 °F 35.6 °F 100% 29.42 in 4.0 mi ESE 17.3 mph - N/A   Overcast
2:36 PM 35.6 °F 24.8 °F 35.6 °F 100% 29.41 in 2.5 mi ESE 19.6 mph - N/A   Overcast
2:56 PM - - - N/A% 29.40 in 2.0 mi ESE 19.6 mph 25.3 mph N/A   Overcast
3:16 PM - - - N/A% 29.38 in 2.5 mi ESE 21.9 mph - N/A   Overcast
3:36 PM 37.4 °F 27.8 °F 35.6 °F 93% 29.39 in 7.0 mi ESE 17.3 mph - N/A   Overcast
3:56 PM 37.4 °F 28.2 °F 37.4 °F 100% 29.37 in 9.0 mi ESE 16.1 mph - N/A   Overcast
4:16 PM 37.4 °F 27.8 °F 35.6 °F 93% 29.36 in 10.0 mi SE 17.3 mph - N/A   Mostly Cloudy
4:36 PM 37.4 °F 28.2 °F 35.6 °F 93% 29.36 in 10.0 mi ESE 16.1 mph - N/A   Overcast
4:56 PM 37.4 °F 28.5 °F 35.6 °F 93% 29.36 in 10.0 mi SE 15.0 mph - N/A   Overcast
5:16 PM 37.4 °F 29.8 °F 35.6 °F 93% 29.36 in 10.0 mi SE 11.5 mph - N/A   Overcast
5:36 PM 37.4 °F 29.3 °F 35.6 °F 93% 29.36 in 10.0 mi SSE 12.7 mph - N/A   Overcast
5:56 PM 37.4 °F 29.3 °F 37.4 °F 100% 29.36 in 10.0 mi SE 12.7 mph - N/A   Mostly Cloudy
6:16 PM 37.4 °F 29.8 °F 35.6 °F 93% 29.36 in 10.0 mi SSE 11.5 mph - N/A   Mostly Cloudy
6:36 PM 37.4 °F 29.8 °F 33.8 °F 87% 29.36 in 10.0 mi SSE 11.5 mph - N/A   Partly Cloudy
6:56 PM 35.6 °F 30.7 °F 33.8 °F 93% 29.35 in 10.0 mi East 5.8 mph - N/A   Clear
7:16 PM 35.6 °F 28.0 °F 33.8 °F 93% 29.35 in 10.0 mi ESE 10.4 mph - N/A   Clear
7:36 PM 35.6 °F 26.2 °F 33.8 °F 93% 29.34 in 10.0 mi SE 15.0 mph - N/A   Clear
7:56 PM 35.6 °F 26.2 °F 33.8 °F 93% 29.34 in 10.0 mi ESE 15.0 mph - N/A   Clear
8:16 PM 35.6 °F 26.6 °F 33.8 °F 93% 29.34 in 10.0 mi ESE 13.8 mph - N/A   Partly Cloudy
8:36 PM 35.6 °F 26.2 °F 33.8 °F 93% 29.34 in 10.0 mi ESE 15.0 mph - N/A   Mostly Cloudy
8:56 PM 35.6 °F 26.2 °F 32.0 °F 87% 29.34 in 10.0 mi East 15.0 mph - N/A   Overcast
9:16 PM 35.6 °F 25.5 °F 33.8 °F 93% 29.32 in 10.0 mi ESE 17.3 mph - N/A   Overcast
9:36 PM 35.6 °F 25.9 °F 33.8 °F 93% 29.32 in 10.0 mi ESE 16.1 mph - N/A   Overcast
9:56 PM 35.6 °F 27.1 °F 33.8 °F 93% 29.32 in 10.0 mi ESE 12.7 mph - N/A   Overcast
10:16 PM 37.4 °F 28.2 °F 33.8 °F 87% 29.32 in 10.0 mi ESE 16.1 mph - N/A   Overcast
10:36 PM 37.4 °F 27.8 °F 33.8 °F 87% 29.31 in 10.0 mi ESE 17.3 mph - N/A   Overcast
10:56 PM 37.4 °F 27.2 °F 33.8 °F 87% 29.31 in 10.0 mi ESE 19.6 mph 25.3 mph N/A   Overcast
11:16 PM 37.4 °F 27.5 °F 33.8 °F 87% 29.30 in 10.0 mi ESE 18.4 mph - N/A   Overcast
11:36 PM 37.4 °F 26.6 °F 33.8 °F 87% 29.29 in 10.0 mi ESE 21.9 mph 27.6 mph N/A   Overcast
11:56 PM - - - N/A% 29.28 in 10.0 mi SE 21.9 mph 26.5 mph N/A   Overcast